PDT,Max TemperatureF,Mean TemperatureF,Min TemperatureF,Max Dew PointF,MeanDew PointF,Min DewpointF,Max Humidity, Mean Humidity, Min Humidity, Max Sea Level PressureIn, Mean Sea Level PressureIn, Min Sea Level PressureIn, Max VisibilityMiles, Mean VisibilityMiles, Min VisibilityMiles, Max Wind SpeedMPH, Mean Wind SpeedMPH, Max Gust SpeedMPH,PrecipitationIn, CloudCover, Events, WindDirDegrees
2012-7-1,109,92,78,46,35,17,29,16,4,29.72,29.65,29.57,10,10,10,18,12,25,0.00,0,,253
2012-7-2,104,88,75,63,50,38,47,26,14,29.75,29.68,29.62,10,10,10,13,8,17,0.00,0,,131
2012-7-3,99,88,78,71,64,50,79,47,19,29.80,29.73,29.67,10,10,6,23,10,28,0.00,2,,116
2012-7-4,99,90,82,73,61,42,74,44,19,29.83,29.77,29.73,10,10,10,12,6,18,0.00,1,,121
2012-7-5,102,86,73,68,58,47,64,40,16,29.86,29.80,29.74,10,10,10,13,5,,0.00,0,,114
2012-7-6,106,88,71,63,50,35,61,32,11,29.88,29.82,29.74,10,10,10,12,5,,0.00,0,,95
2012-7-7,109,91,73,44,37,30,29,16,7,29.86,29.80,29.73,10,10,10,15,5,21,0.00,0,,284
2012-7-8,111,95,79,48,38,29,27,15,6,29.85,29.79,29.71,10,10,10,12,7,,0.00,0,,278
2012-7-9,113,95,79,55,47,38,34,19,11,29.81,29.74,29.65,10,10,9,10,6,,0.00,0,,156
2012-7-10,116,100,84,70,52,45,45,22,10,29.75,29.67,29.57,10,10,10,10,6,,0.00,1,,207
2012-7-11,109,98,87,70,62,41,52,32,18,29.75,29.69,29.62,10,10,6,14,8,16,0.00,2,,115
2012-7-12,99,90,80,73,68,62,74,51,30,29.86,29.77,29.68,10,10,9,25,10,36,0.01,2,Rain,165
2012-7-13,102,90,78,76,72,66,90,64,36,29.87,29.80,29.74,10,10,10,20,7,38,0.02,2,Rain-Thunderstorm,235
2012-7-14,102,88,77,76,72,61,90,60,30,29.88,29.81,29.72,10,10,9,12,3,,0.00,1,,187
2012-7-15,105,92,81,72,60,41,74,39,19,29.84,29.77,29.67,10,10,10,13,6,,0.00,1,,161
2012-7-16,104,88,75,52,44,33,43,22,14,29.80,29.73,29.66,10,9,5,22,8,30,0.00,1,,295
2012-7-17,100,84,69,45,36,25,29,18,8,29.85,29.79,29.74,10,10,10,16,7,24,0.00,0,,273
2012-7-18,106,90,75,46,37,26,31,17,6,29.87,29.80,29.73,10,10,10,16,8,22,0.00,0,,302
2012-7-19,108,91,75,68,55,42,50,30,15,29.86,29.80,29.74,10,10,10,13,5,,0.00,0,,155
2012-7-20,109,95,81,67,57,52,58,30,17,29.87,29.80,29.72,10,10,10,8,4,,0.00,1,,247
2012-7-21,109,96,82,77,67,54,67,40,22,29.86,29.77,29.68,10,10,10,16,7,30,0.00,1,,130
2012-7-22,108,96,86,72,68,62,61,42,27,29.86,29.78,29.72,10,10,10,13,9,17,0.00,1,,127
2012-7-23,107,96,84,72,63,45,61,37,20,29.85,29.78,29.70,10,10,10,10,8,18,0.00,1,,124
2012-7-24,111,96,84,57,40,30,40,17,8,29.82,29.76,29.69,10,10,8,16,8,,0.00,2,,239
2012-7-25,109,95,82,50,38,26,18,14,9,29.84,29.77,29.69,10,10,10,16,8,,0.00,0,,212
2012-7-26,109,94,79,56,43,32,45,19,9,29.83,29.76,29.69,10,10,10,10,6,,0.00,0,,214
2012-7-27,109,92,75,44,35,30,31,15,7,29.83,29.77,29.69,10,10,10,14,5,,0.00,0,,257
2012-7-28,109,89,70,71,54,24,55,30,12,29.85,29.79,29.72,10,10,10,17,6,18,0.00,0,,131
2012-7-29,105,93,84,75,68,63,65,45,27,29.87,29.82,29.75,10,10,10,21,7,24,0.00,0,,115
2012-7-30,100,86,73,78,74,68,100,78,36,29.90,29.87,29.81,10,9,1,23,11,39,0.90,4,Rain-Thunderstorm,158
2012-7-31,88,81,75,76,75,73,97,82,65,29.95,29.91,29.88,10,10,8,9,3,,0.08,4,Rain,346